COSMOS 1275 DEB

Satellite information

Favourite Embed

Satellite Type and Status

DEBRISIN ORBIT

Key statistics

Satellite COSMOS 1275 DEB at a glance.

Uptime

16104

Days in orbit

Revolutions

≈ 13.9

Per day

Orbit

LEO

Low Earth Orbit

Inclination

83.0

Latest

Satellite identification and parameters

Extended collection of information and parameters for COSMOS 1275 DEB.

Object identification

Identified? True

Debris? True

Object name: COSMOS 1275 DEB

International designator: 1981-053HC

Object number (NORAD): 13808

Object ID (CCSDS): 13808

Country: COMMONWEALTH OF INDEPENDENT STATES (CIS)

Current information (Y/N): Y

RCS size: SMALL

Orbital parameters

Period: 103.388 minutes

Inclination: 83.0312 deg

SMA: 7296.955 km

Apoapsis: 963.238 km

Periapsis: 874.402 km

RAAN: 239.9919 deg

Eccentricy: 0.0060872

Argument of periapsis: 46.1163 deg

Mean anomaly: 109.1892 deg

Mean motion: 13.92804938 rev/day

Mean motion (dot): 0.00000834 rev/day2

B* drag term: 0.0006223 1/REarth

Two-line elements (TLE)

Creation date: July 6, 2025, 10:46 p.m.

Reference frame: TEME

Reference center: EARTH

Epoch: July 6, 2025, 3:02 p.m. UTC

TLE line 0: 0 COSMOS 1275 DEB

TLE line 1: 1 13808U 81053HC 25187.62689233 .00000834 00000-0 62230-3 0 9990

TLE line 2: 2 13808 83.0312 239.9919 0060872 46.1163 109.1892 13.92804938142436

Live tracking on map

Real-time ground track for satellite COSMOS 1275 DEB.

In-orbit conjunctions

A list of the most updated potential collisions computed for object COSMOS 1275 DEB.

Target Orbit TCA Probability of collision Miss distance Type
THORAD AGENA D DEB SSO 2024-11-11 12:52:58 0.0006228862 331.0 (m) DEBRIS
COSMOS 1375 DEB LEO 2024-11-08 16:18:13 0.000493955 280.0 (m) DEBRIS
FENGYUN 1C DEB SSO 2024-09-27 08:09:17 0.0002693676 412.0 (m) DEBRIS

Associated space launch

Navigation satellite providing location information for the Tsiklon-B navigation system

COSMOS 1275 DEB was lifted into orbit during the mission ‘Kosmos-3M | Parus 27’, on board a Kosmos-3M space rocket.

The launch took place on June 4, 1981, 3:41 p.m. from 132/2.

For more information about the launch, click the button.

Launch to space Kosmos-3M | Parus 27
Kosmos-3M | Parus 27

Agency: N/A

Status: Launch Successful

Launch date: June 4, 1981, 3:41 p.m. UTC

Rocket: Kosmos-3M

Launch pad: 132/2

Location: Plesetsk Cosmodrome, Russian Federation

...

Latest news about this satellite

There are no fresh news available about this satellite. Check back as we update our databases every day.


Newsletter sign-up

Weekly statistics, charts and insights to help you stay on top of the space industry.